KI5NYZ-13 Weather Reports


time (UTC)temp
F
wind
direction
speed
knots
gust
knots
rain 1hr
in
rain 24hr
in
rain mn
in
humidity
%
barometer
mb
20260507031518 65 113 6.1 6.1 0.08 0.14 0.14 41 1012.0
20260507024517 66 126 1.7 1.7 0.00 0.06 0.06 40 1011.2
20260507021517 67 198 0.0 0.0 0.00 0.06 0.06 39 1010.3
20260507014515 69 142 0.0 0.0 0.00 0.06 0.06 37 1009.4
20260507011514 73 180 2.6 2.6 0.00 0.06 0.06 32 1008.3
20260507004513 75 78 0.0 0.9 0.00 0.06 0.06 30 1007.7
20260507001513 76 182 3.5 3.5 0.00 0.06 0.06 28 1007.3
20260506234511 76 106 0.9 0.9 0.00 0.06 0.06 27 1007.3
20260506231510 76 94 0.9 1.7 0.00 0.07 0.06 27 1007.2
20260506224509 75 90 0.9 0.9 0.00 0.14 0.06 28 1007.4
20260506221508 74 78 0.9 0.9 0.00 0.15 0.06 29 1007.9
20260506214507 75 106 0.9 0.9 0.00 0.15 0.06 28 1008.2
20260506211506 73 93 1.7 1.7 0.00 0.16 0.06 30 1008.9
20260506204506 72 81 0.9 0.9 0.00 0.16 0.06 32 1009.6
20260506201504 70 168 1.7 1.7 0.00 0.16 0.06 35 1010.3
20260506194503 68 100 1.7 1.7 0.00 0.16 0.06 38 1011.0
20260506191502 66 73 1.7 1.7 0.00 0.16 0.06 41 1011.7
20260506184501 63 112 1.7 1.7 0.00 0.16 0.06 46 1012.5
20260506181501 61 54 0.9 1.7 0.00 0.16 0.06 49 1013.4
20260506174459 58 103 2.6 2.6 0.00 0.16 0.06 54 1014.4
20260506171458 57 90 2.6 2.6 0.00 0.16 0.06 56 1014.9
20260506164457 56 115 1.7 6.1 0.02 0.15 0.05 59 1015.3
20260506161456 54 107 3.5 6.1 0.04 0.15 0.05 62 1015.5
20260506154455 52 100 3.5 7.0 0.01 0.12 0.02 65 1015.9
20260506151454 51 89 3.5 7.8 0.00 0.11 0.01 66 1015.8
20260506144453 49 72 2.6 5.2 0.00 0.10 0.00 69 1016.3
20260506141452 48 83 3.5 7.8 0.00 0.10 0.00 72 1016.4
20260506134451 46 62 4.3 7.8 0.00 0.10 0.00 76 1016.2
20260506131450 46 53 3.5 7.0 0.00 0.10 0.00 78 1015.7
20260506124449 45 66 2.6 4.3 0.00 0.10 0.00 80 1015.6
20260506121448 45 66 2.6 4.3 0.00 0.10 0.00 79 1015.7
20260506114447 46 62 3.5 6.1 0.00 0.10 0.00 76 1015.0
20260506111446 48 78 2.6 5.2 0.00 0.10 0.00 74 1013.8
20260506104445 50 90 3.5 6.1 0.00 0.09 0.00 73 1012.9
20260506101444 52 106 3.5 6.1 0.00 0.09 0.00 71 1012.2
20260506094443 53 112 2.6 4.3 0.00 0.09 0.00 69 1011.5
20260506091442 53 113 2.6 4.3 0.00 0.09 0.00 67 1010.7
20260506084441 54 112 1.7 3.5 0.00 0.09 0.00 67 1010.3
20260506081440 54 104 3.5 5.2 0.00 0.09 0.00 66 1009.9
20260506071438 59 108 3.5 5.2 0.00 0.09 0.00 58 1009.1
20260506061436 63 109 3.5 4.3 0.00 0.09 0.00 50 1007.9
20260506043355 68 304 1.7 1.7 0.00 0.09 0.09 38 1005.6
20260506040354 69 305 3.5 4.3 0.00 0.09 0.09 37 1005.2
20260506033353 71 306 6.1 6.1 0.00 0.09 0.09 34 1004.8